GW2898 Weather Reports


Display with metric or nautical units.
time (UTC)temp
F
wind
direction
speed
MPH
gust
MPH
rain 1hr
in
rain 24hr
in
rain mn
in
humidity
%
barometer
mb
20260906230334 102 296 4.0 8.0 0.00 0.00 0.00 26 1011.6
20260906225832 102 265 5.0 11.0 0.00 0.00 0.00 26 1011.6
20260906225328 102 300 2.0 8.0 0.00 0.00 0.00 26 1011.7
20260906224823 103 307 4.0 7.0 0.00 0.00 0.00 26 1011.7
20260906224320 102 356 3.0 7.0 0.00 0.00 0.00 25 1011.7
20260906223816 103 289 5.0 14.0 0.00 0.00 0.00 26 1011.8
20260906223312 103 312 6.0 10.0 0.00 0.00 0.00 25 1011.9
20260906222809 104 340 6.0 10.0 0.00 0.00 0.00 25 1011.7
20260906222308 103 229 7.0 9.0 0.00 0.00 0.00 26 1011.9
20260906221806 104 304 3.0 9.0 0.00 0.00 0.00 26 1012.0
20260906221300 104 317 4.0 8.0 0.00 0.00 0.00 26 1011.8
20260906220756 104 306 5.0 9.0 0.00 0.00 0.00 26 1012.1
20260906220251 103 302 3.0 7.0 0.00 0.00 0.00 26 1012.1
20260906215751 102 330 5.0 13.0 0.00 0.00 0.00 26 1012.3
20260906215250 104 346 5.0 12.0 0.00 0.00 0.00 26 1012.3
20260906214749 104 304 2.0 8.0 0.00 0.00 0.00 26 1012.1
20260906214244 103 220 7.0 10.0 0.00 0.00 0.00 26 1012.2
20260906213743 103 243 4.0 9.0 0.00 0.00 0.00 25 1012.4
20260906213243 103 265 5.0 10.0 0.00 0.00 0.00 25 1012.6
20260906212740 104 353 2.0 7.0 0.00 0.00 0.00 26 1012.3
20260906212236 103 338 5.0 12.0 0.00 0.00 0.00 27 1012.5
20260906211735 104 2 4.0 10.0 0.00 0.00 0.00 26 1012.5
20260906211231 104 244 3.0 7.0 0.00 0.00 0.00 25 1012.7
20260906210726 103 256 3.0 6.0 0.00 0.00 0.00 27 1012.8
20260906210221 103 245 5.0 7.0 0.00 0.00 0.00 26 1012.7
20260906205716 102 294 4.0 6.0 0.00 0.00 0.00 26 1012.7
20260906205213 102 244 4.0 13.0 0.00 0.00 0.00 26 1012.8
20260906204712 102 245 3.0 5.0 0.00 0.00 0.00 29 1013.1
20260906204206 101 276 7.0 12.0 0.00 0.00 0.00 26 1013.2
20260906203706 103 303 4.0 7.0 0.00 0.00 0.00 26 1013.0
20260906203201 102 249 4.0 9.0 0.00 0.00 0.00 26 1013.1
20260906202658 102 263 3.0 6.0 0.00 0.00 0.00 27 1013.3
20260906202157 102 343 0.0 5.0 0.00 0.00 0.00 27 1013.4
20260906201652 101 319 7.0 12.0 0.00 0.00 0.00 27 1013.3
20260906201151 101 321 2.0 6.0 0.00 0.00 0.00 28 1013.4
20260906200648 101 284 2.0 7.0 0.00 0.00 0.00 26 1013.4
20260906200143 101 325 7.0 11.0 0.00 0.00 0.00 27 1013.5
20260906195638 102 334 2.0 4.0 0.00 0.00 0.00 26 1013.5
20260906195135 101 311 3.0 9.0 0.00 0.00 0.00 27 1013.5
20260906194631 101 305 5.0 7.0 0.00 0.00 0.00 27 1013.5
20260906194126 101 232 4.0 6.0 0.00 0.00 0.00 26 1013.6
20260906193621 100 232 3.0 7.0 0.00 0.00 0.00 27 1013.7
20260906193116 101 251 1.0 6.0 0.00 0.00 0.00 27 1013.7
20260906192612 101 304 2.0 8.0 0.00 0.00 0.00 27 1013.8
20260906192110 100 333 4.0 8.0 0.00 0.00 0.00 28 1013.8
20260906191606 102 335 5.0 8.0 0.00 0.00 0.00 27 1013.6
20260906191105 100 55 6.0 9.0 0.00 0.00 0.00 27 1013.9
20260906190604 101 323 7.0 11.0 0.00 0.00 0.00 26 1013.9
20260906190059 100 283 2.0 7.0 0.00 0.00 0.00 27 1014.0
20260906185558 99 236 3.0 7.0 0.00 0.00 0.00 28 1014.2
20260906185057 100 249 2.0 3.0 0.00 0.00 0.00 29 1014.1
20260906184552 101 201 2.0 7.0 0.00 0.00 0.00 32 1014.2
20260906184047 102 237 1.0 3.0 0.00 0.00 0.00 31 1014.4
20260906183543 100 241 2.0 4.0 0.00 0.00 0.00 29 1014.5
20260906183039 100 333 2.0 6.0 0.00 0.00 0.00 28 1014.6
20260906182534 100 8 2.0 4.0 0.00 0.00 0.00 29 1014.4
20260906182030 98 109 1.0 5.0 0.00 0.00 0.00 30 1014.6
20260906181526 99 8 2.0 5.0 0.00 0.00 0.00 29 1014.7
20260906181021 97 226 3.0 5.0 0.00 0.00 0.00 31 1014.7
20260906180516 97 241 3.0 6.0 0.00 0.00 0.00 32 1014.9
20260906180015 98 205 2.0 4.0 0.00 0.00 0.00 32 1014.9
20260906175509 99 318 0.0 3.0 0.00 0.00 0.00 31 1014.9
20260906175009 98 313 1.0 3.0 0.00 0.00 0.00 32 1015.0
20260906174507 96 224 3.0 6.0 0.00 0.00 0.00 34 1015.0
20260906174002 97 266 3.0 5.0 0.00 0.00 0.00 33 1014.9
20260906173457 98 274 2.0 4.0 0.00 0.00 0.00 33 1015.1
20260906172957 96 332 1.0 4.0 0.00 0.00 0.00 33 1015.2
20260906172447 95 333 0.0 4.0 0.00 0.00 0.00 33 1015.4
20260906171942 96 269 0.0 4.0 0.00 0.00 0.00 34 1015.2
20260906171436 94 216 0.0 5.0 0.00 0.00 0.00 34 1015.4
20260906170932 96 180 0.0 2.0 0.00 0.00 0.00 33 1015.3
20260906170428 94 252 1.0 7.0 0.00 0.00 0.00 34 1015.7
20260906165926 94 210 3.0 4.0 0.00 0.00 0.00 37 1015.3
20260906165424 95 233 4.0 6.0 0.00 0.00 0.00 35 1015.5
20260906164920 94 287 2.0 3.0 0.00 0.00 0.00 36 1015.6
20260906164418 94 109 1.0 4.0 0.00 0.00 0.00 35 1015.3
20260906163915 93 224 0.0 3.0 0.00 0.00 0.00 35 1015.5
20260906163410 92 296 2.0 3.0 0.00 0.00 0.00 38 1015.7
20260906162908 93 276 2.0 3.0 0.00 0.00 0.00 38 1015.5
20260906162407 93 222 3.0 4.0 0.00 0.00 0.00 40 1015.5
20260906161902 93 233 0.0 3.0 0.00 0.00 0.00 39 1015.5
20260906161401 92 271 3.0 3.0 0.00 0.00 0.00 37 1015.2
20260906160900 92 137 0.0 4.0 0.00 0.00 0.00 40 1015.4
20260906160354 92 153 0.0 3.0 0.00 0.00 0.00 37 1015.4
20260906155853 94 251 0.0 3.0 0.00 0.00 0.00 37 1015.6
20260906155346 93 95 2.0 4.0 0.00 0.00 0.00 37 1015.6
20260906154843 93 290 0.0 2.0 0.00 0.00 0.00 37 1015.7
20260906154337 92 333 0.0 2.0 0.00 0.00 0.00 39 1015.5
20260906153836 91 86 3.0 5.0 0.00 0.00 0.00 38 1016.0
20260906153335 92 49 0.0 4.0 0.00 0.00 0.00 40 1015.7
20260906152830 90 61 1.0 4.0 0.00 0.00 0.00 41 1015.7
20260906152326 92 70 1.0 3.0 0.00 0.00 0.00 39 1015.6
20260906151825 93 341 0.0 2.0 0.00 0.00 0.00 39 1015.7
20260906151321 92 66 2.0 3.0 0.00 0.00 0.00 41 1015.7
20260906150816 90 129 0.0 1.0 0.00 0.00 0.00 42 1015.8
20260906150312 90 6 0.0 0.0 0.00 0.00 0.00 44 1015.7
20260906145811 90 160 0.0 2.0 0.00 0.00 0.00 43 1015.6
20260906145309 91 144 0.0 0.0 0.00 0.00 0.00 42 1015.7
20260906144805 92 147 0.0 1.0 0.00 0.00 0.00 42 1015.7
20260906144259 93 154 0.0 1.0 0.00 0.00 0.00 42 1015.3
20260906143759 93 44 0.0 2.0 0.00 0.00 0.00 42 1015.3
20260906143256 92 77 0.0 0.0 0.00 0.00 0.00 43 1015.3
20260906142755 91 77 0.0 0.0 0.00 0.00 0.00 44 1015.4
20260906142251 90 77 0.0 1.0 0.00 0.00 0.00 44 1015.1
20260906141750 88 89 0.0 1.0 0.00 0.00 0.00 50 1015.2
20260906141245 86 343 0.0 1.0 0.00 0.00 0.00 49 1015.0
20260906140744 85 60 0.0 1.0 0.00 0.00 0.00 51 1014.9
20260906140239 83 37 0.0 2.0 0.00 0.00 0.00 55 1015.0
20260906135735 84 297 0.0 1.0 0.00 0.00 0.00 53 1014.8
20260906135232 82 142 0.0 1.0 0.00 0.00 0.00 53 1014.9
20260906134727 82 60 0.0 1.0 0.00 0.00 0.00 56 1014.9
20260906134223 80 75 0.0 1.0 0.00 0.00 0.00 57 1014.9
20260906133718 79 49 0.0 1.0 0.00 0.00 0.00 59 1014.8
20260906133214 78 141 0.0 0.0 0.00 0.00 0.00 59 1014.6
20260906132708 77 242 0.0 0.0 0.00 0.00 0.00 59 1014.8
20260906132204 77 110 0.0 2.0 0.00 0.00 0.00 61 1014.4
20260906131659 76 76 0.0 2.0 0.00 0.00 0.00 61 1014.5
20260906131154 76 77 0.0 2.0 0.00 0.00 0.00 62 1014.5
20260906130650 76 104 0.0 1.0 0.00 0.00 0.00 62 1014.5
20260906130145 77 75 0.0 1.0 0.00 0.00 0.00 61 1014.4
20260906125642 77 44 0.0 2.0 0.00 0.00 0.00 60 1014.4
20260906125141 77 67 0.0 2.0 0.00 0.00 0.00 60 1014.3
20260906124637 77 52 2.0 2.0 0.00 0.00 0.00 59 1014.4
20260906124132 77 76 1.0 2.0 0.00 0.00 0.00 59 1014.2
20260906123631 77 75 0.0 2.0 0.00 0.00 0.00 57 1014.3
20260906123127 77 102 0.0 0.0 0.00 0.00 0.00 57 1014.1
20260906122626 77 62 0.0 1.0 0.00 0.00 0.00 56 1014.3
20260906122121 77 224 0.0 0.0 0.00 0.00 0.00 56 1014.3
20260906121617 78 224 0.0 0.0 0.00 0.00 0.00 55 1014.2
20260906121114 78 129 0.0 1.0 0.00 0.00 0.00 55 1014.0
20260906120609 78 142 0.0 1.0 0.00 0.00 0.00 54 1014.4
20260906120107 79 129 0.0 1.0 0.00 0.00 0.00 53 1014.3
20260906115606 79 180 0.0 0.0 0.00 0.00 0.00 53 1014.1
20260906115102 78 147 0.0 1.0 0.00 0.00 0.00 54 1014.2
20260906114555 79 132 0.0 1.0 0.00 0.00 0.00 56 1014.2
20260906114051 79 173 0.0 2.0 0.00 0.00 0.00 56 1014.2
20260906113550 79 71 0.0 2.0 0.00 0.00 0.00 56 1014.1
20260906113045 79 3 1.0 2.0 0.00 0.00 0.00 55 1014.0
20260906112540 79 142 0.0 1.0 0.00 0.00 0.00 54 1014.0
20260906112037 78 32 0.0 0.0 0.00 0.00 0.00 55 1014.1
20260906111536 79 32 0.0 0.0 0.00 0.00 0.00 55 1014.1
20260906111031 79 32 0.0 0.0 0.00 0.00 0.00 54 1014.1
20260906110526 80 242 0.0 0.0 0.00 0.00 0.00 52 1013.9
20260906110025 80 242 0.0 0.0 0.00 0.00 0.00 52 1014.2
20260906105520 81 113 0.0 0.0 0.00 0.00 0.00 51 1014.1
20260906105016 81 93 1.0 2.0 0.00 0.00 0.00 50 1014.3
20260906104515 80 223 0.0 1.0 0.00 0.00 0.00 50 1014.0
20260906104015 80 117 0.0 1.0 0.00 0.00 0.00 50 1014.0
20260906103513 80 147 0.0 0.0 0.00 0.00 0.00 51 1014.1
20260906103008 81 104 0.0 0.0 0.00 0.00 0.00 51 1014.3
20260906102508 81 217 0.0 1.0 0.00 0.00 0.00 50 1014.3
20260906102008 81 18 1.0 2.0 0.00 0.00 0.00 50 1014.3
20260906101503 81 94 1.0 1.0 0.00 0.00 0.00 52 1013.9
20260906100959 81 101 1.0 1.0 0.00 0.00 0.00 50 1014.3
20260906100454 81 89 0.0 1.0 0.00 0.00 0.00 52 1014.1
20260906095954 81 25 0.0 0.0 0.00 0.00 0.00 51 1014.2
20260906095449 81 25 0.0 0.0 0.00 0.00 0.00 49 1014.1
20260906094944 82 25 0.0 1.0 0.00 0.00 0.00 48 1014.1
20260906094438 82 352 0.0 0.0 0.00 0.00 0.00 47 1014.2
20260906093934 83 352 0.0 0.0 0.00 0.00 0.00 46 1014.4
20260906093430 83 32 0.0 2.0 0.00 0.00 0.00 46 1014.0
20260906092930 83 6 1.0 2.0 0.00 0.00 0.00 45 1014.0
20260906092429 84 269 1.0 1.0 0.00 0.00 0.00 45 1014.1
20260906091925 84 269 0.0 2.0 0.00 0.00 0.00 44 1014.0
20260906091421 84 322 0.0 0.0 0.00 0.00 0.00 43 1014.0
20260906090917 85 269 0.0 2.0 0.00 0.00 0.00 42 1013.9
20260906090413 85 210 0.0 1.0 0.00 0.00 0.00 43 1014.1
20260906085906 86 202 0.0 1.0 0.00 0.00 0.00 41 1014.2
20260906085400 87 166 0.0 1.0 0.00 0.00 0.00 39 1014.0
20260906084859 86 103 0.0 1.0 0.00 0.00 0.00 40 1014.0
20260906084354 86 338 0.0 2.0 0.00 0.00 0.00 40 1014.3
20260906083849 87 296 0.0 3.0 0.00 0.00 0.00 39 1014.4
20260906083344 87 325 1.0 4.0 0.00 0.00 0.00 38 1014.1
20260906082844 86 337 1.0 4.0 0.00 0.00 0.00 40 1014.2
20260906082339 83 69 0.0 3.0 0.00 0.00 0.00 45 1014.3
20260906081835 82 75 0.0 0.0 0.00 0.00 0.00 47 1014.4
20260906081330 83 75 0.0 0.0 0.00 0.00 0.00 46 1014.5
20260906080826 83 96 1.0 2.0 0.00 0.00 0.00 46 1014.3
20260906080322 82 101 0.0 1.0 0.00 0.00 0.00 48 1014.5
20260906075821 82 104 0.0 0.0 0.00 0.00 0.00 49 1014.4
20260906075316 82 104 0.0 1.0 0.00 0.00 0.00 49 1014.5
20260906074812 82 55 0.0 1.0 0.00 0.00 0.00 49 1014.4
20260906074311 82 89 0.0 0.0 0.00 0.00 0.00 48 1014.2
20260906073810 83 89 0.0 0.0 0.00 0.00 0.00 46 1014.3
20260906073305 82 89 1.0 1.0 0.00 0.00 0.00 48 1014.3
20260906072802 82 110 0.0 0.0 0.00 0.00 0.00 48 1014.5
20260906072257 83 110 0.0 0.0 0.00 0.00 0.00 48 1014.7
20260906071753 83 110 0.0 0.0 0.00 0.00 0.00 48 1014.4
20260906071253 83 30 0.0 2.0 0.00 0.00 0.00 49 1014.6
20260906070749 83 333 0.0 2.0 0.00 0.00 0.00 50 1014.6
20260906070245 82 343 0.0 1.0 0.00 0.00 0.00 51 1014.6
20260906065744 83 15 0.0 0.0 0.00 0.00 0.00 50 1014.6
20260906065240 83 15 0.0 0.0 0.00 0.00 0.00 50 1014.6
20260906064735 83 15 0.0 0.0 0.00 0.00 0.00 49 1014.9
20260906064231 84 315 0.0 1.0 0.00 0.00 0.00 49 1014.7
20260906063726 83 78 1.0 2.0 0.00 0.00 0.00 48 1014.6
20260906063221 83 89 1.0 2.0 0.00 0.00 0.00 48 1014.6
20260906062716 84 116 0.0 0.0 0.00 0.00 0.00 47 1014.5
20260906062215 84 116 0.0 0.0 0.00 0.00 0.00 48 1014.4
20260906061712 85 116 0.0 1.0 0.00 0.00 0.00 45 1014.6
20260906061208 84 100 1.0 1.0 0.00 0.00 0.00 45 1014.5
20260906060703 84 89 0.0 1.0 0.00 0.00 0.00 46 1014.7
20260906060200 85 117 0.0 0.0 0.00 0.00 0.00 46 1014.8
20260906055655 85 117 0.0 1.0 0.00 0.00 0.00 45 1014.6
20260906055150 85 201 0.0 1.0 0.00 0.00 0.00 46 1014.7
20260906054646 86 205 0.0 0.0 0.00 0.00 0.00 44 1014.8
20260906054140 86 205 0.0 1.0 0.00 0.00 0.00 41 1014.9
20260906053637 87 142 0.0 1.0 0.00 0.00 0.00 40 1015.0
20260906053132 88 164 0.0 0.0 0.00 0.00 0.00 38 1014.6
20260906052627 87 217 0.0 0.0 0.00 0.00 0.00 39 1014.6
20260906052124 87 218 0.0 2.0 0.00 0.00 0.00 40 1014.7
20260906051620 87 230 0.0 0.0 0.00 0.00 0.00 39 1014.8
20260906051114 88 230 0.0 0.0 0.00 0.00 0.00 39 1014.8
20260906050610 88 230 0.0 0.0 0.00 0.00 0.00 39 1014.7
20260906050105 89 230 0.0 0.0 0.00 0.00 0.00 37 1014.7
20260906045603 89 217 0.0 2.0 0.00 0.00 0.00 36 1014.7
20260906045059 90 310 0.0 3.0 0.00 0.00 0.00 36 1014.7
20260906044554 90 269 0.0 3.0 0.00 0.00 0.00 35 1014.6
20260906044049 90 234 0.0 2.0 0.00 0.00 0.00 35 1014.6
20260906043545 90 345 0.0 1.0 0.00 0.00 0.00 36 1014.7
20260906043041 91 217 0.0 1.0 0.00 0.00 0.00 35 1014.8
20260906042540 91 318 1.0 2.0 0.00 0.00 0.00 35 1014.8
20260906042034 92 317 2.0 3.0 0.00 0.00 0.00 33 1014.8
20260906041525 93 262 1.0 5.0 0.00 0.00 0.00 33 1014.8
20260906041020 93 329 3.0 5.0 0.00 0.00 0.00 33 1014.6
20260906040515 92 327 0.0 5.0 0.00 0.00 0.00 33 1014.6
20260906040010 92 326 2.0 2.0 0.00 0.00 0.00 33 1014.8
20260906035505 93 320 0.0 4.0 0.00 0.00 0.00 33 1014.7
20260906035001 93 324 1.0 4.0 0.00 0.00 0.00 33 1014.7
20260906034501 93 327 2.0 7.0 0.00 0.00 0.00 32 1014.8
20260906033956 93 325 2.0 7.0 0.00 0.00 0.00 32 1014.6
20260906033450 93 320 4.0 6.0 0.00 0.00 0.00 32 1014.4
20260906032946 93 330 2.0 5.0 0.00 0.00 0.00 32 1014.6
20260906032443 93 314 5.0 9.0 0.00 0.00 0.00 32 1014.4
20260906031937 94 331 3.0 9.0 0.00 0.00 0.00 31 1014.6
20260906031432 94 325 3.0 8.0 0.00 0.00 0.00 31 1014.3
20260906030927 94 332 3.0 6.0 0.00 0.00 0.00 31 1014.3
20260906030422 94 313 5.0 10.0 0.00 0.00 0.00 31 1014.3
20260906025916 94 331 4.0 9.0 0.00 0.00 0.00 31 1014.3
20260906025411 94 347 5.0 7.0 0.00 0.00 0.00 31 1014.4
20260906024910 94 327 4.0 5.0 0.00 0.00 0.00 31 1014.1
20260906024409 94 299 2.0 7.0 0.00 0.00 0.00 31 1013.9
20260906023904 94 320 2.0 5.0 0.00 0.00 0.00 31 1014.1
20260906023401 94 273 2.0 7.0 0.00 0.00 0.00 31 1014.0
20260906022900 94 322 3.0 6.0 0.00 0.00 0.00 31 1013.9
20260906022355 95 309 1.0 7.0 0.00 0.00 0.00 31 1014.0
20260906021851 95 309 4.0 7.0 0.00 0.00 0.00 31 1014.0
20260906021350 95 297 6.0 12.0 0.00 0.00 0.00 30 1013.8
20260906020845 95 308 5.0 7.0 0.00 0.00 0.00 31 1013.8
20260906020345 95 322 4.0 8.0 0.00 0.00 0.00 31 1013.8
20260906015839 95 245 3.0 11.0 0.00 0.00 0.00 31 1013.8
20260906015338 95 315 0.0 10.0 0.00 0.00 0.00 31 1014.1
20260906014833 96 286 4.0 13.0 0.00 0.00 0.00 30 1013.8
20260906014327 96 340 5.0 9.0 0.00 0.00 0.00 30 1014.0
20260906013824 96 299 5.0 9.0 0.00 0.00 0.00 30 1014.1
20260906013319 96 321 3.0 7.0 0.00 0.00 0.00 30 1013.9
20260906012815 96 322 3.0 8.0 0.00 0.00 0.00 30 1014.1
20260906012314 96 325 3.0 10.0 0.00 0.00 0.00 29 1014.1
20260906011809 97 340 10.0 10.0 0.00 0.00 0.00 29 1014.1
20260906011304 97 234 3.0 7.0 0.00 0.00 0.00 29 1014.0
20260906010800 97 275 4.0 7.0 0.00 0.00 0.00 28 1014.1
20260906010256 97 223 2.0 7.0 0.00 0.00 0.00 28 1014.2
20260906005751 98 307 2.0 8.0 0.00 0.00 0.00 28 1014.0
20260906005250 98 256 5.0 6.0 0.00 0.00 0.00 29 1014.2
20260906004749 98 314 7.0 13.0 0.00 0.00 0.00 27 1014.0
20260906004244 99 311 5.0 13.0 0.00 0.00 0.00 28 1013.9
20260906003739 99 313 8.0 11.0 0.00 0.00 0.00 27 1014.2
20260906003234 100 266 0.0 6.0 0.00 0.00 0.00 27 1014.3
20260906002734 100 272 3.0 9.0 0.00 0.00 0.00 27 1014.3
20260906002229 100 330 5.0 11.0 0.00 0.00 0.00 27 1014.1
20260906001724 99 238 5.0 12.0 0.00 0.00 0.00 27 1014.2
20260906001219 100 319 6.0 11.0 0.00 0.00 0.00 27 1014.2
20260906000714 100 309 6.0 12.0 0.00 0.00 0.00 27 1013.9
20260906000212 100 311 3.0 9.0 0.00 0.00 0.00 27 1014.0
20260905235709 100 322 5.0 10.0 0.00 0.00 0.00 27 1014.1
20260905235204 100 313 5.0 8.0 0.00 0.00 0.00 27 1014.0
20260905234659 100 291 4.0 11.0 0.00 0.00 0.00 26 1013.9
20260905234155 100 347 3.0 6.0 0.00 0.00 0.00 27 1014.1
20260905233650 100 324 7.0 11.0 0.00 0.00 0.00 27 1014.1
20260905233149 100 263 7.0 13.0 0.00 0.00 0.00 27 1014.0
20260905232644 100 333 2.0 8.0 0.00 0.00 0.00 27 1014.1
20260905232140 100 292 4.0 12.0 0.00 0.00 0.00 27 1014.0
20260905231635 101 283 3.0 10.0 0.00 0.00 0.00 28 1014.0
20260905231132 102 348 4.0 13.0 0.00 0.00 0.00 26 1014.0
20260905230627 101 325 4.0 12.0 0.00 0.00 0.00 26 1014.0